• In Hungary
  • List of Countries
  • For 7 days
  • Water Temperature
  • Satellite Maps
  • Weather Map
  • News
  • Weather Widgets
  • user-avatar
    Login

    Hourly Weather Dobrinka

    Today, 14 November, Wednesday

    Time Temperature Precipitation Wind Pressure Humidity
    00:00 -8°C° 0 mm 3 mps 766 mmHg 33%
    01:00 -8°C° 0 mm 3 mps 766 mmHg 33%
    02:00 -8°C° 0 mm 3 mps 765 mmHg 34%
    03:00 -9°C° 0 mm 3 mps 765 mmHg 38%
    04:00 -9°C° 0 mm 3 mps 765 mmHg 38%
    05:00 -9°C° 0 mm 3 mps 765 mmHg 39%
    06:00 -9°C° 0 mm 3 mps 764 mmHg 39%
    07:00 -9°C° 0 mm 3 mps 764 mmHg 38%
    08:00 -10°C° 0 mm 4 mps 763 mmHg 37%
    09:00 -9°C° 0 mm 4 mps 764 mmHg 36%
    10:00 -8°C° 0 mm 4 mps 763 mmHg 35%
    11:00 -7°C° 0 mm 4 mps 763 mmHg 34%
    12:00 -5°C° 0 mm 4 mps 763 mmHg 34%
    13:00 -4°C° 0 mm 4 mps 762 mmHg 35%
    14:00 -4°C° 0 mm 4 mps 762 mmHg 37%
    15:00 -3°C° 0 mm 4 mps 762 mmHg 39%
    16:00 -4°C° 0 mm 4 mps 762 mmHg 41%
    17:00 -5°C° 0 mm 4 mps 762 mmHg 43%
    18:00 -5°C° 0 mm 4 mps 762 mmHg 45%
    19:00 -5°C° 0 mm 4 mps 762 mmHg 43%
    20:00 -7°C° 0 mm 4 mps 761 mmHg 40%
    21:00 -7°C° 0 mm 4 mps 761 mmHg 37%
    22:00 -7°C° 0 mm 4 mps 761 mmHg 35%
    23:00 -7°C° 0 mm 4 mps 761 mmHg 34%

    Tomorrow, 15 November, Thursday

    Time Temperature Precipitation Wind Pressure Humidity
    00:00 -6°C° 0 mm 3 mps 761 mmHg 32%
    01:00 -7°C° 0 mm 3 mps 761 mmHg 32%
    02:00 -7°C° 0 mm 3 mps 761 mmHg 32%
    03:00 -7°C° 0 mm 3 mps 761 mmHg 32%
    04:00 -7°C° 0 mm 3 mps 761 mmHg 32%
    05:00 -7°C° 0 mm 3 mps 761 mmHg 32%
    06:00 -7°C° 0 mm 3 mps 761 mmHg 32%
    07:00 -7°C° 0 mm 3 mps 762 mmHg 31%
    08:00 -7°C° 0 mm 3 mps 762 mmHg 30%
    09:00 -6°C° 0 mm 3 mps 763 mmHg 28%
    10:00 -5°C° 0 mm 3 mps 763 mmHg 27%
    11:00 -4°C° 0 mm 3 mps 763 mmHg 25%
    12:00 -2°C° 0 mm 3 mps 763 mmHg 23%
    13:00 -2°C° 0 mm 3 mps 763 mmHg 23%
    14:00 -2°C° 0 mm 3 mps 763 mmHg 23%
    15:00 -1°C° 0 mm 3 mps 763 mmHg 24%
    16:00 -2°C° 0 mm 3 mps 763 mmHg 26%
    17:00 -4°C° 0 mm 3 mps 763 mmHg 28%
    18:00 -5°C° 0 mm 3 mps 764 mmHg 30%
    19:00 -5°C° 0 mm 3 mps 764 mmHg 30%
    20:00 -5°C° 0 mm 3 mps 764 mmHg 31%
    21:00 -6°C° 0 mm 3 mps 764 mmHg 31%
    22:00 -6°C° 0 mm 3 mps 765 mmHg 31%
    23:00 -6°C° 0 mm 3 mps 765 mmHg 31%

    Day after tomorrow, 16 November, Friday

    Time Temperature Precipitation Wind Pressure Humidity
    00:00 -6°C° 0 mm 3 mps 765 mmHg 31%
    01:00 -6°C° 0 mm 3 mps 765 mmHg 31%
    02:00 -6°C° 0 mm 3 mps 765 mmHg 31%
    03:00 -7°C° 0 mm 3 mps 765 mmHg 30%
    04:00 -7°C° 0 mm 3 mps 765 mmHg 30%
    05:00 -7°C° 0 mm 3 mps 766 mmHg 29%
    06:00 -7°C° 0 mm 3 mps 766 mmHg 28%
    07:00 -6°C° 0 mm 3 mps 766 mmHg 27%
    08:00 -6°C° 0 mm 3 mps 766 mmHg 25%
    09:00 -7°C° 0 mm 4 mps 767 mmHg 24%
    10:00 -4°C° 0 mm 4 mps 766 mmHg 23%
    11:00 -3°C° 0 mm 4 mps 766 mmHg 21%
    12:00 -2°C° 0 mm 4 mps 766 mmHg 19%
    13:00 -2°C° 0 mm 4 mps 766 mmHg 20%
    14:00 -1°C° 0 mm 3 mps 766 mmHg 21%
    15:00 -1°C° 0 mm 3 mps 766 mmHg 22%
    16:00 -2°C° 0 mm 3 mps 766 mmHg 24%
    17:00 -4°C° 0 mm 3 mps 766 mmHg 26%
    18:00 -4°C° 0 mm 3 mps 766 mmHg 28%
    19:00 -5°C° 0 mm 3 mps 766 mmHg 28%
    20:00 -5°C° 0 mm 3 mps 766 mmHg 28%
    21:00 -5°C° 0 mm 3 mps 766 mmHg 28%
    22:00 -5°C° 0 mm 3 mps 766 mmHg 28%
    23:00 -5°C° 0 mm 3 mps 766 mmHg 28%

    17 November, Saturday

    Time Temperature Precipitation Wind Pressure Humidity
    00:00 -6°C° 0 mm 3 mps 766 mmHg 28%
    01:00 -6°C° 0 mm 3 mps 766 mmHg 28%
    02:00 -6°C° 0 mm 3 mps 766 mmHg 28%
    03:00 -5°C° 0 mm 2 mps 766 mmHg 28%
    04:00 -5°C° 0 mm 2 mps 765 mmHg 28%
    05:00 -6°C° 0 mm 3 mps 765 mmHg 28%
    06:00 -6°C° 0 mm 3 mps 765 mmHg 28%
    07:00 -5°C° 0 mm 2 mps 765 mmHg 28%
    08:00 -5°C° 0 mm 2 mps 764 mmHg 27%
    09:00 -4°C° 0 mm 2 mps 764 mmHg 26%
    10:00 -3°C° 0 mm 2 mps 764 mmHg 24%
    11:00 -2°C° 0 mm 2 mps 764 mmHg 22%
    12:00 -1°C° 0 mm 2 mps 763 mmHg 19%
    13:00 +1°C° 0 mm 1 mps 763 mmHg 21%
    14:00 +1°C° 0 mm 1 mps 762 mmHg 22%
    15:00 +1°C° 0 mm 1 mps 762 mmHg 24%
    16:00 +1°C° 0 mm 1 mps 761 mmHg 24%
    17:00 0°C° 0 mm 1 mps 761 mmHg 24%
    18:00 -1°C° 0 mm 1 mps 760 mmHg 25%
    19:00 -1°C° 0 mm 1 mps 760 mmHg 25%
    20:00 -2°C° 0 mm 0 mps 759 mmHg 24%
    21:00 -2°C° 0 mm 0 mps 759 mmHg 24%
    22:00 -3°C° 0 mm 0 mps 758 mmHg 24%
    23:00 -2°C° 0 mm 1 mps 757 mmHg 24%

    18 November, Sunday

    Time Temperature Precipitation Wind Pressure Humidity
    00:00 -2°C° 0 mm 1 mps 757 mmHg 25%
    01:00 -2°C° 0 mm 1 mps 756 mmHg 26%
    02:00 -2°C° 0 mm 1 mps 756 mmHg 27%
    03:00 -5°C° 0 mm 2 mps 755 mmHg 28%
    04:00 -5°C° 0 mm 2 mps 754 mmHg 29%
    05:00 -5°C° 0 mm 2 mps 754 mmHg 29%
    06:00 -5°C° 0 mm 2 mps 753 mmHg 30%
    07:00 -5°C° 0 mm 2 mps 753 mmHg 30%
    08:00 -5°C° 0 mm 2 mps 752 mmHg 30%
    09:00 -4°C° 0 mm 2 mps 752 mmHg 30%
    10:00 -4°C° 0 mm 2 mps 752 mmHg 30%
    11:00 -3°C° 0 mm 2 mps 751 mmHg 29%
    12:00 -2°C° 0 mm 3 mps 751 mmHg 28%
    13:00 -2°C° 0 mm 2 mps 751 mmHg 31%
    14:00 -2°C° 0 mm 2 mps 750 mmHg 33%
    15:00 -2°C° 0 mm 2 mps 750 mmHg 35%
    16:00 -2°C° 0 mm 2 mps 750 mmHg 40%
    17:00 -3°C° 0 mm 2 mps 750 mmHg 46%
    18:00 -3°C° 0 mm 2 mps 750 mmHg 51%
    19:00 -3°C° 0 mm 2 mps 750 mmHg 58%
    20:00 -3°C° 0 mm 2 mps 750 mmHg 66%
    21:00 -4°C° 0 mm 2 mps 750 mmHg 73%
    22:00 -4°C° 0 mm 2 mps 750 mmHg 78%
    23:00 -4°C° 0 mm 2 mps 750 mmHg 84%

    19 November, Monday

    Time Temperature Precipitation Wind Pressure Humidity
    00:00 -4°C° 0 mm 2 mps 750 mmHg 89%
    01:00 -3°C° 0.1 mm 2 mps 750 mmHg 89%
    02:00 -3°C° 0.1 mm 2 mps 750 mmHg 89%
    03:00 -3°C° 0.1 mm 2 mps 750 mmHg 90%
    04:00 -3°C° 0.1 mm 2 mps 751 mmHg 88%
    05:00 -4°C° 0.1 mm 3 mps 751 mmHg 85%
    06:00 -4°C° 0.1 mm 3 mps 751 mmHg 83%
    07:00 -4°C° 0.1 mm 3 mps 751 mmHg 80%
    08:00 -4°C° 0.1 mm 3 mps 752 mmHg 77%
    09:00 -2°C° 0.1 mm 3 mps 752 mmHg 74%
    10:00 -2°C° 0.1 mm 3 mps 752 mmHg 73%
    11:00 -3°C° 0.1 mm 4 mps 753 mmHg 71%
    12:00 -2°C° 0.1 mm 4 mps 753 mmHg 70%
    13:00 -1°C° 0.1 mm 3 mps 753 mmHg 72%
    14:00 -1°C° 0.1 mm 3 mps 753 mmHg 74%
    15:00 -1°C° 0.1 mm 3 mps 753 mmHg 77%
    16:00 -1°C° 0.1 mm 3 mps 754 mmHg 80%
    17:00 -1°C° 0.1 mm 3 mps 754 mmHg 84%
    18:00 -2°C° 0.1 mm 3 mps 754 mmHg 88%
    19:00 -2°C° 0.1 mm 3 mps 754 mmHg 87%
    20:00 -2°C° 0.1 mm 3 mps 754 mmHg 86%
    21:00 -2°C° 0.1 mm 3 mps 754 mmHg 85%
    22:00 -4°C° 0.1 mm 3 mps 755 mmHg 84%
    23:00 -4°C° 0.1 mm 3 mps 755 mmHg 82%
    Show more